VE6CWS-7 Weather Reports


time (UTC)temp
C
wind
direction
speed
KPH
gust
KPH
rain 1hr
cm
rain 24hr
cm
rain mn
cm
humidity
%
barometer
mb
20260507141552 10 264 11.3 22.5 0.00 0.00 0.00 62 1009.2
20260507140146 10 269 12.9 19.3 0.00 0.00 0.00 63 1009.2
20260507134538 9 265 14.5 19.3 0.00 0.00 0.00 65 1009.2
20260507133046 8 252 12.9 22.5 0.00 0.00 0.00 67 1009.1
20260507131634 7 253 11.3 17.7 0.00 0.00 0.00 70 1009.1
20260507130132 7 261 3.2 12.9 0.00 0.00 0.00 71 1009.3
20260507124543 7 258 4.8 12.9 0.00 0.00 0.00 74 1009.0
20260507123042 6 260 0.0 4.8 0.00 0.00 0.00 75 1009.1
20260507121539 6 261 8.0 11.3 0.00 0.00 0.00 72 1009.0
20260507120136 7 266 3.2 11.3 0.00 0.00 0.00 70 1009.2
20260507114626 7 288 0.0 0.0 0.00 0.00 0.00 68 1009.1
20260507113045 7 288 0.0 0.0 0.00 0.00 0.00 66 1009.1
20260507111544 7 269 0.0 6.4 0.00 0.00 0.00 67 1009.1
20260507110143 6 263 0.0 6.4 0.00 0.00 0.00 68 1009.1
20260507104550 7 263 0.0 4.8 0.00 0.00 0.00 64 1008.9
20260507103049 7 254 0.0 0.0 0.00 0.00 0.00 64 1008.8
20260507101548 6 254 0.0 14.5 0.00 0.00 0.00 68 1008.8
20260507100145 7 246 4.8 12.9 0.00 0.00 0.00 66 1008.8
20260507094538 7 242 11.3 16.1 0.00 0.00 0.00 61 1008.9
20260507093035 7 229 0.0 9.7 0.00 0.00 0.00 61 1008.6
20260507091541 8 221 4.8 11.3 0.00 0.00 0.00 61 1008.4
20260507090129 8 205 0.0 11.3 0.00 0.00 0.00 61 1008.6
20260507084553 8 230 3.2 11.3 0.00 0.00 0.00 57 1008.9
20260507083041 9 231 1.6 8.0 0.00 0.00 0.00 57 1009.0
20260507081543 9 232 6.4 14.5 0.00 0.00 0.00 53 1009.1
20260507080137 9 316 0.0 0.0 0.00 0.00 0.00 56 1009.4
20260507074548 10 316 0.0 0.0 0.00 0.00 0.00 54 1009.4
20260507073051 10 316 0.0 0.0 0.00 0.00 0.00 53 1009.6
20260507071543 10 316 0.0 0.0 0.00 0.00 0.00 52 1009.8
20260507070141 10 316 0.0 12.9 0.00 0.00 0.00 48 1009.7
20260507064558 10 293 0.0 12.9 0.00 0.00 0.00 47 1009.4
20260507063057 10 127 0.0 4.8 0.00 0.00 0.00 45 1009.2
20260507061551 10 165 0.0 4.8 0.00 0.00 0.00 47 1008.9
20260507060147 10 132 0.0 6.4 0.00 0.00 0.00 45 1008.5
20260507054537 11 132 4.8 12.9 0.00 0.00 0.00 42 1008.4
20260507053033 11 128 1.6 27.4 0.00 0.00 0.00 41 1008.5
20260507051533 10 123 1.6 17.7 0.00 0.00 0.00 47 1008.1
20260507050131 10 113 3.2 11.3 0.00 0.00 0.00 47 1008.0
20260507044536 10 111 0.0 11.3 0.00 0.00 0.00 46 1008.2
20260507043036 11 111 0.0 0.0 0.00 0.00 0.00 46 1008.3
20260507041535 11 111 0.0 9.7 0.00 0.00 0.00 44 1008.3
20260507040134 12 113 0.0 16.1 0.00 0.00 0.00 40 1008.1
20260507034538 12 111 11.3 22.5 0.00 0.00 0.00 38 1008.1
20260507033037 12 103 9.7 27.4 0.00 0.00 0.00 39 1008.1
20260507031536 13 117 14.5 22.5 0.00 0.00 0.00 35 1008.1
20260507030135 13 93 9.7 16.1 0.00 0.00 0.00 36 1008.0
20260507024539 14 72 11.3 19.3 0.00 0.00 0.00 36 1008.0
20260507023045 15 61 8.0 17.7 0.00 0.00 0.00 37 1008.0
20260507021544 15 73 1.6 12.9 0.00 0.00 0.00 38 1007.9
20260507020138 15 72 1.6 12.9 0.00 0.00 0.00 38 1007.5
20260507014547 15 76 4.8 14.5 0.00 0.00 0.00 37 1007.3
20260507013052 16 94 3.2 14.5 0.00 0.00 0.00 35 1006.9
20260507011544 16 96 1.6 19.3 0.00 0.00 0.00 34 1006.8
20260507010144 16 123 9.7 22.5 0.00 0.00 0.00 33 1006.5
20260507004601 17 94 14.5 22.5 0.00 0.00 0.00 31 1006.7
20260507003052 17 83 14.5 20.9 0.00 0.00 0.00 31 1006.7
20260507001551 17 86 9.7 17.7 0.00 0.00 0.00 31 1007.0
20260507000147 17 108 4.8 19.3 0.00 0.00 0.00 30 1007.1
20260506234548 18 96 14.5 24.1 0.00 0.00 0.00 29 1007.0
20260506233056 18 115 4.8 20.9 0.00 0.00 0.00 30 1007.1
20260506231540 18 97 11.3 22.5 0.00 0.00 0.00 29 1007.1
20260506230139 18 76 9.7 19.3 0.00 0.00 0.00 28 1007.3
20260506224658 18 112 6.4 16.1 0.00 0.00 0.00 27 1007.7
20260506223055 18 77 3.2 12.9 0.00 0.00 0.00 26 1008.0
20260506221552 20 138 3.2 14.5 0.00 0.00 0.00 26 1008.2
20260506220050 19 119 0.0 11.3 0.00 0.00 0.00 27 1008.5
20260506214550 18 117 1.6 16.1 0.00 0.00 0.00 26 1008.7
20260506213101 19 127 1.6 8.0 0.00 0.00 0.00 26 1008.8
20260506211546 18 211 0.0 9.7 0.00 0.00 0.00 25 1009.0
20260506210040 18 110 0.0 19.3 0.00 0.00 0.00 27 1009.3
20260506204536 17 95 3.2 12.9 0.00 0.00 0.00 30 1009.4
20260506203034 17 224 4.8 16.1 0.00 0.00 0.00 28 1009.7
20260506201533 17 123 4.8 22.5 0.00 0.00 0.00 28 1009.9
20260506200030 17 116 1.6 17.7 0.00 0.00 0.00 29 1010.2
20260506194526 16 117 8.0 19.3 0.00 0.00 0.00 29 1010.6
20260506193024 16 96 0.0 16.1 0.00 0.00 0.00 29 1010.7
20260506191521 16 105 4.8 22.5 0.00 0.00 0.00 29 1010.8
20260506190019 16 127 6.4 22.5 0.00 0.00 0.00 30 1011.0
20260506184527 15 103 8.0 24.1 0.00 0.00 0.00 31 1011.2
20260506183018 15 115 12.9 22.5 0.00 0.00 0.00 32 1011.7
20260506181513 15 118 3.2 16.1 0.00 0.00 0.00 31 1012.0
20260506180007 14 117 1.6 22.5 0.00 0.00 0.00 31 1012.3
20260506174502 13 128 9.7 20.9 0.00 0.00 0.00 32 1012.6
20260506173113 13 121 14.5 24.1 0.00 0.00 0.00 34 1012.9
20260506171556 13 89 6.4 19.3 0.00 0.00 0.00 35 1013.3
20260506170056 12 109 6.4 22.5 0.00 0.00 0.00 37 1013.6
20260506164549 11 123 11.3 22.5 0.00 0.00 0.00 38 1014.0
20260506163047 10 130 9.7 20.9 0.00 0.00 0.00 41 1014.2
20260506161546 10 131 8.0 20.9 0.00 0.00 0.00 42 1014.6
20260506160044 9 126 11.3 17.7 0.00 0.00 0.00 43 1014.8
20260506154535 8 125 6.4 20.9 0.00 0.00 0.00 46 1014.8
20260506153036 7 131 4.8 17.7 0.00 0.00 0.00 49 1015.0
20260506151529 6 127 8.0 16.1 0.00 0.00 0.00 52 1015.2
20260506150027 6 119 4.8 17.7 0.00 0.00 0.00 54 1015.4
20260506144522 5 128 6.4 16.1 0.00 0.00 0.00 58 1015.7
20260506143016 3 122 6.4 14.5 0.00 0.00 0.00 65 1015.9